User: anonymous   Login
Location: Unspecified
(0.0000°N, 0.0000°E)
Time: 21:17:14
(UTC+00:00)
Language:

USA 285 - Orbit

View from above orbital plane
View from above orbital plane
View from above satellite
View from above satellite

Ground track
Ground track

The orbit data is extracted from the following two-line orbital elements,

1 43445U 18036E   21331.45572456 -.00000151  00000-0  00000-0 0  9994
2 43445   3.0401  85.4288 0008043 104.4298 279.9552  1.02115621  9960
Epoch (UTC): 27 November 2021 10:56:14
Eccentricity: 0.0008043
inclination: 3.0401°
perigee height: 35243 km
apogee height: 35310 km
right ascension of ascending node: 85.4288°
argument of perigee: 104.4298°
revolutions per day: 1.02115621
mean anomaly at epoch: 279.9552°
orbit number at epoch: 996

The dashed part of the orbit path shows where the satellite is in the earth's shadow,  

DLR